Weather in Itaquaquecetuba

Brazil     23°29′09″S   46°22′19″W
temp.,
°C
wind,
m/s
gust,
m/s
humid.,
%
clouds,
%
prec.,
mm/h
press.,
hPa
HPBL,
m
22 april, thu
thu2200:00+16sse1496100 0.6 1018238
03:00+15sse1399100 2.8 1016202
06:00+15sse149881 1.2 1018308
09:00+17sse249161 1.3 1019480
12:00+21sse346353 0.1 10171284
15:00+19sse446844 0.3 10161058
18:00+15sse259411 0.1 1018228
21:00+14sse249270 0.1 1019291
23 april, fri
fri2300:00+15ese139079 0.0 1019188
03:00+14se139248 0.1 1017113
06:00+12se11940 0.0 101830
09:00+17se11710 0.0 1018616
12:00+22ssw11522 0.0 10161279
15:00+21s435650 0.0 1014996
18:00+15sse379313 0.0 1016271
21:00+15se2386100 0.0 1017399
24 april, sat
sat2400:00+15e0183100 0.0 1017130
03:00+13n11940 0.0 101612
06:00+12n11977 0.0 101717
09:00+18ne10720 0.0 1017394
12:00+23wsw12450 0.0 10151134
15:00+24sw23410 0.0 10121293
18:00+17sse23863 0.0 101482
21:00+14sse119627 0.0 101633
25 april, sun
sun2500:00+14ene11953 0.0 101619
03:00+13ne11947 0.0 101517
06:00+13ne119663 0.0 101533
09:00+18ne2274100 0.0 1016256
12:00+24ne225150 0.0 1013824
15:00+26ne1148100 0.0 10111117
18:00+18se2389100 0.0 101264
21:00+16sse2395100 0.0 101478
26 april, mon
mon2600:00+15sse2296100 0.0 101472
03:00+16se1398100 0.2 1013150
06:00+16ne1197100 0.1 101448
09:00+18ne2387100 0.1 1014255
12:00+24ene115699 0.0 1013979
15:00+22sse447421 0.8 1011635
18:00+17sse379855 1.8 1014306
21:00+17ese129499 2.3 1016182